Weather History for Orange, MA

Change the Weather History Date:

Tuesday, November 15, 2011

  Actual Average Record
Temperature  
Mean Temperature 54 °F -  
Max Temperature 61 °F 44 °F 66 °F (2008)
Min Temperature 46 °F 26 °F 10 °F (1996)
Degree Days  
Heating Degree Days 12    
Growing Degree Days 4 (Base 50)    
Moisture  
Dew Point 48 °F    
Average Humidity 78    
Maximum Humidity 93    
Minimum Humidity 57    
Precipitation  
Precipitation 0.05 in - - ()
Sea Level Pressure  
Sea Level Pressure 29.82 in    
Wind  
Wind Speed 5 mph (WSW)    
Max Wind Speed 10 mph    
Max Gust Speed -    
Visibility 10 miles    
Events Rain    
Averages and records for this station are not official NWS values.
T = Trace of Precipitation, MM = Missing Value Source: NWS Daily Summary

Daily Weather History Graph

Daily Weather History Graph

Search for Another Location

Airport:

Trip Planner

Search our weather history database for the weather conditions in past years. The results will help you decide how hot, cold, wet, or windy it might be!

Date:

Astronomy

Nov. 15, 2011 Rise Set
Actual Time 6:40 AM EST 4:26 PM EST
Civil Twilight 6:09 AM EST 4:57 PM EST
Nautical Twilight 5:35 AM EST 5:31 PM EST
Astronomical Twilight 5:02 AM EST 6:04 PM EST
Moon 8:32 PM EST (11/15) 10:38 AM EST (11/15)
Length of Visible Light 10h 47m
Length of Day
9h 46m
Waning Gibbous, 79% of the Moon is Illuminated
Nov 15
Waning Gibbous
Nov 18
Last Quarter
Nov 25
New
Dec 2
First Quarter
Dec 10
Full

Hourly Weather History & Observations

Time (EST) Temp. Dew Point Humidity Pressure Visibility Wind Dir Wind Speed Gust Speed Precip Events Conditions
12:52 AM 57.0 °F 53.1 °F 87% 29.70 in 10.0 mi South 9.2 mph - 0.00 in Rain Light Rain
1:52 AM 55.9 °F 53.1 °F 90% 29.71 in 10.0 mi Calm Calm - 0.02 in Rain Light Rain
2:52 AM 55.9 °F 53.1 °F 90% 29.70 in 10.0 mi SE 5.8 mph - 0.00 in   Overcast
4:52 AM 57.9 °F 52.0 °F 81% 29.69 in 10.0 mi SSW 8.1 mph - N/A   Mostly Cloudy
5:52 AM 57.0 °F 51.1 °F 81% 29.66 in 10.0 mi South 10.4 mph - N/A   Partly Cloudy
8:52 AM 61.0 °F 50.0 °F 67% 29.73 in 10.0 mi West 8.1 mph - 0.00 in   Overcast
9:52 AM 61.0 °F 51.1 °F 70% 29.75 in 10.0 mi West 8.1 mph - 0.00 in Rain Light Rain
10:52 AM 57.9 °F 53.1 °F 84% 29.77 in 9.0 mi West 5.8 mph - 0.03 in Rain Light Rain
11:52 AM 57.9 °F 51.1 °F 78% 29.79 in 10.0 mi WNW 3.5 mph - 0.00 in   Overcast
12:52 PM 59.0 °F 48.9 °F 69% 29.80 in 10.0 mi West 5.8 mph - N/A   Overcast
1:52 PM 59.0 °F 46.0 °F 62% 29.82 in 10.0 mi West 8.1 mph - N/A   Overcast
2:52 PM 59.0 °F 44.1 °F 58% 29.82 in 10.0 mi West 6.9 mph - N/A   Partly Cloudy
3:52 PM 57.0 °F 42.1 °F 57% 29.84 in 10.0 mi WSW 3.5 mph - N/A   Clear
4:52 PM 54.0 °F 42.1 °F 64% 29.86 in 10.0 mi SSW 3.5 mph - N/A   Overcast
5:52 PM 51.1 °F 44.1 °F 77% 29.90 in 10.0 mi Calm Calm - N/A   Overcast
6:52 PM 50.0 °F 45.0 °F 83% 29.91 in 10.0 mi Calm Calm - N/A   Overcast
7:52 PM 48.9 °F 45.0 °F 86% 29.94 in 10.0 mi Calm Calm - N/A   Overcast
8:52 PM 48.9 °F 45.0 °F 86% 29.94 in 10.0 mi Calm Calm - N/A   Overcast
9:52 PM 48.0 °F 45.0 °F 89% 29.95 in 10.0 mi Calm Calm - N/A   Overcast
10:52 PM 46.9 °F 44.1 °F 90% 29.95 in 10.0 mi Calm Calm - N/A   Overcast
11:52 PM 46.0 °F 44.1 °F 93% 29.96 in 10.0 mi Calm Calm - N/A   Overcast